When you browse on this site, cookies collect data to enhance your experience and personalize the content and advertising you see.
Visit our Privacy Policy to learn more. By continuing to use the site, you agree to this use of cookies and data.
  • In Lithuania
  • List of Countries
  • For 7 days
  • Water Temperature
  • Satellite Maps
  • Weather Map
  • Weather Widgets
  • user-avatar
    Login

    Hourly Weather Lankaran

    Today, 22 May, Wednesday

    Time Temperature Precipitation Wind Pressure Humidity
    00:00 +7°C° 0 mm 0 mps 636 mmHg 69%
    01:00 +7°C° 0 mm 0 mps 636 mmHg 70%
    02:00 +6°C° 0 mm 0 mps 635 mmHg 70%
    03:00 +6°C° 0 mm 0 mps 635 mmHg 70%
    04:00 +7°C° 0 mm 0 mps 635 mmHg 68%
    05:00 +8°C° 0 mm 0 mps 636 mmHg 65%
    06:00 +9°C° 0 mm 0 mps 636 mmHg 63%
    07:00 +12°C° 0 mm 1 mps 637 mmHg 58%
    08:00 +13°C° 0 mm 1 mps 637 mmHg 53%
    09:00 +15°C° 0 mm 1 mps 637 mmHg 47%
    10:00 +16°C° 0 mm 2 mps 637 mmHg 47%
    11:00 +16°C° 0 mm 2 mps 637 mmHg 46%
    12:00 +17°C° 0 mm 3 mps 637 mmHg 45%
    13:00 +17°C° 0 mm 3 mps 637 mmHg 46%
    14:00 +18°C° 0 mm 3 mps 636 mmHg 47%
    15:00 +18°C° 0 mm 3 mps 636 mmHg 48%
    16:00 +17°C° 0 mm 2 mps 635 mmHg 52%
    17:00 +16°C° 0 mm 2 mps 635 mmHg 57%
    18:00 +15°C° 0 mm 2 mps 634 mmHg 61%
    19:00 +14°C° 0 mm 2 mps 634 mmHg 66%
    20:00 +12°C° 0 mm 1 mps 633 mmHg 71%
    21:00 +11°C° 0 mm 1 mps 633 mmHg 75%
    22:00 +11°C° 0 mm 1 mps 633 mmHg 75%
    23:00 +10°C° 0 mm 2 mps 633 mmHg 74%

    Tomorrow, 23 May, Thursday

    Time Temperature Precipitation Wind Pressure Humidity
    00:00 +10°C° 0 mm 2 mps 632 mmHg 73%
    01:00 +10°C° 0 mm 2 mps 632 mmHg 73%
    02:00 +9°C° 0 mm 2 mps 632 mmHg 73%
    03:00 +10°C° 0 mm 1 mps 632 mmHg 72%
    04:00 +11°C° 0 mm 1 mps 632 mmHg 68%
    05:00 +13°C° 0 mm 1 mps 633 mmHg 63%
    06:00 +14°C° 0 mm 1 mps 634 mmHg 59%
    07:00 +15°C° 0 mm 1 mps 634 mmHg 55%
    08:00 +17°C° 0 mm 2 mps 635 mmHg 51%
    09:00 +18°C° 0 mm 2 mps 635 mmHg 47%
    10:00 +19°C° 0 mm 2 mps 635 mmHg 47%
    11:00 +20°C° 0 mm 3 mps 635 mmHg 46%
    12:00 +20°C° 0 mm 3 mps 635 mmHg 46%
    13:00 +20°C° 0 mm 3 mps 634 mmHg 47%
    14:00 +20°C° 0 mm 3 mps 634 mmHg 48%
    15:00 +20°C° 0 mm 3 mps 633 mmHg 49%
    16:00 +19°C° 0 mm 3 mps 633 mmHg 54%
    17:00 +18°C° 0 mm 3 mps 632 mmHg 60%
    18:00 +17°C° 0 mm 2 mps 632 mmHg 65%
    19:00 +15°C° 0 mm 2 mps 632 mmHg 70%
    20:00 +14°C° 0 mm 1 mps 632 mmHg 75%
    21:00 +13°C° 0 mm 1 mps 632 mmHg 79%
    22:00 +12°C° 0 mm 1 mps 632 mmHg 80%
    23:00 +12°C° 0 mm 1 mps 632 mmHg 81%

    Day after tomorrow, 24 May, Friday

    Time Temperature Precipitation Wind Pressure Humidity
    00:00 +11°C° 0 mm 1 mps 632 mmHg 82%
    01:00 +11°C° 0 mm 1 mps 632 mmHg 82%
    02:00 +11°C° 0 mm 1 mps 632 mmHg 83%
    03:00 +11°C° 0 mm 1 mps 631 mmHg 83%
    04:00 +12°C° 0 mm 1 mps 632 mmHg 79%
    05:00 +13°C° 0 mm 1 mps 633 mmHg 75%
    06:00 +14°C° 0 mm 1 mps 633 mmHg 71%
    07:00 +16°C° 0 mm 1 mps 634 mmHg 66%
    08:00 +17°C° 0 mm 2 mps 635 mmHg 61%
    09:00 +18°C° 0 mm 2 mps 635 mmHg 56%
    10:00 +19°C° 0 mm 2 mps 635 mmHg 53%
    11:00 +20°C° 0 mm 2 mps 635 mmHg 50%
    12:00 +21°C° 0 mm 2 mps 636 mmHg 47%
    13:00 +21°C° 0 mm 3 mps 635 mmHg 47%
    14:00 +21°C° 0 mm 3 mps 635 mmHg 47%
    15:00 +21°C° 0 mm 3 mps 635 mmHg 47%
    16:00 +20°C° 0 mm 3 mps 634 mmHg 55%
    17:00 +18°C° 0 mm 2 mps 634 mmHg 63%
    18:00 +17°C° 0 mm 2 mps 634 mmHg 71%
    19:00 +16°C° 0.1 mm 2 mps 634 mmHg 76%
    20:00 +15°C° 0.1 mm 2 mps 634 mmHg 80%
    21:00 +14°C° 0.1 mm 1 mps 634 mmHg 85%
    22:00 +14°C° 0 mm 1 mps 634 mmHg 85%
    23:00 +13°C° 0 mm 1 mps 634 mmHg 85%

    25 May, Saturday

    Time Temperature Precipitation Wind Pressure Humidity
    00:00 +13°C° 0 mm 1 mps 634 mmHg 84%
    01:00 +13°C° 0 mm 1 mps 634 mmHg 82%
    02:00 +13°C° 0 mm 2 mps 634 mmHg 79%
    03:00 +13°C° 0 mm 2 mps 634 mmHg 76%
    04:00 +14°C° 0 mm 2 mps 634 mmHg 71%
    05:00 +16°C° 0 mm 1 mps 635 mmHg 65%
    06:00 +18°C° 0 mm 1 mps 636 mmHg 60%
    07:00 +20°C° 0 mm 1 mps 636 mmHg 52%
    08:00 +22°C° 0 mm 1 mps 637 mmHg 44%
    09:00 +24°C° 0 mm 1 mps 638 mmHg 37%
    10:00 +25°C° 0 mm 2 mps 637 mmHg 34%
    11:00 +26°C° 0 mm 2 mps 637 mmHg 32%
    12:00 +27°C° 0 mm 2 mps 637 mmHg 30%
    13:00 +27°C° 0 mm 2 mps 637 mmHg 30%
    14:00 +28°C° 0 mm 2 mps 636 mmHg 29%
    15:00 +28°C° 0 mm 2 mps 636 mmHg 29%
    16:00 +26°C° 0 mm 2 mps 635 mmHg 34%
    17:00 +25°C° 0 mm 2 mps 635 mmHg 39%
    18:00 +24°C° 0 mm 2 mps 634 mmHg 44%
    19:00 +23°C° 0 mm 2 mps 634 mmHg 38%
    20:00 +21°C° 0 mm 2 mps 634 mmHg 33%
    21:00 +20°C° 0 mm 3 mps 634 mmHg 27%
    22:00 +20°C° 0 mm 3 mps 634 mmHg 28%
    23:00 +19°C° 0 mm 3 mps 634 mmHg 29%

    26 May, Sunday

    Time Temperature Precipitation Wind Pressure Humidity
    00:00 +19°C° 0 mm 3 mps 633 mmHg 30%
    01:00 +19°C° 0 mm 3 mps 633 mmHg 30%
    02:00 +19°C° 0 mm 3 mps 633 mmHg 31%
    03:00 +19°C° 0 mm 3 mps 633 mmHg 31%
    04:00 +19°C° 0 mm 3 mps 633 mmHg 33%
    05:00 +19°C° 0 mm 3 mps 633 mmHg 35%
    06:00 +19°C° 0 mm 3 mps 634 mmHg 37%
    07:00 +22°C° 0 mm 3 mps 635 mmHg 34%
    08:00 +25°C° 0 mm 3 mps 635 mmHg 30%
    09:00 +27°C° 0 mm 3 mps 636 mmHg 26%
    10:00 +27°C° 0 mm 3 mps 636 mmHg 27%
    11:00 +28°C° 0 mm 3 mps 636 mmHg 28%
    12:00 +28°C° 0 mm 2 mps 635 mmHg 29%
    13:00 +27°C° 0.3 mm 3 mps 635 mmHg 35%
    14:00 +25°C° 0.3 mm 3 mps 634 mmHg 41%
    15:00 +24°C° 0.3 mm 3 mps 633 mmHg 47%
    16:00 +21°C° 0 mm 3 mps 633 mmHg 53%
    17:00 +20°C° 0 mm 3 mps 633 mmHg 60%
    18:00 +19°C° 0 mm 2 mps 633 mmHg 66%
    19:00 +17°C° 0 mm 2 mps 632 mmHg 72%
    20:00 +15°C° 0 mm 2 mps 632 mmHg 79%
    21:00 +14°C° 0 mm 1 mps 632 mmHg 86%
    22:00 +14°C° 0 mm 1 mps 632 mmHg 83%
    23:00 +13°C° 0 mm 1 mps 632 mmHg 80%

    27 May, Monday

    Time Temperature Precipitation Wind Pressure Humidity
    00:00 +13°C° 0 mm 1 mps 632 mmHg 77%
    01:00 +13°C° 0 mm 1 mps 632 mmHg 79%
    02:00 +12°C° 0 mm 1 mps 632 mmHg 81%
    03:00 +12°C° 0 mm 1 mps 632 mmHg 82%
    04:00 +13°C° 0 mm 1 mps 633 mmHg 78%
    05:00 +14°C° 0 mm 1 mps 634 mmHg 75%
    06:00 +15°C° 0 mm 1 mps 635 mmHg 71%
    07:00 +16°C° 0 mm 2 mps 635 mmHg 66%
    08:00 +18°C° 0 mm 3 mps 636 mmHg 61%
    09:00 +19°C° 0 mm 3 mps 637 mmHg 56%
    10:00 +20°C° 0 mm 3 mps 637 mmHg 55%
    11:00 +20°C° 0 mm 4 mps 637 mmHg 54%
    12:00 +21°C° 0 mm 4 mps 637 mmHg 53%
    13:00 +21°C° 0 mm 4 mps 636 mmHg 55%
    14:00 +20°C° 0 mm 4 mps 636 mmHg 57%
    15:00 +20°C° 0 mm 5 mps 636 mmHg 60%
    16:00 +18°C° 0.2 mm 4 mps 636 mmHg 63%
    17:00 +17°C° 0.2 mm 4 mps 635 mmHg 67%
    18:00 +14°C° 0.2 mm 3 mps 635 mmHg 71%
    19:00 +13°C° 0.1 mm 3 mps 635 mmHg 75%
    20:00 +13°C° 0.1 mm 2 mps 635 mmHg 78%
    21:00 +12°C° 0.1 mm 1 mps 635 mmHg 82%
    22:00 +11°C° 0 mm 1 mps 635 mmHg 81%
    23:00 +11°C° 0 mm 1 mps 635 mmHg 80%
    Show more